Location: Schommer Observatory
(40.5200°N, 74.4500°W)
Time: 01:22:37
(UTC-05:00)

ISS - Pass Details

Date: 18 November 2017
Orbit: 401 x 407 km, 51.6° (Epoch: 18 November)

Event Time Altitude Azimuth Distance (km) Brightness Sun altitude
Exits shadow 05:42:08 17° 249° (WSW) 1,105 -2.1 -12.6°
Maximum altitude 05:42:58 19° 228° (SW) 1,044 -2.1 -12.4°
Drops below altitude 10° 05:45:18 10° 182° (S) 1,444 -0.9 -12.0°
Sets 05:47:46 0° 163° (SSE) 2,297 0.5 -11.5°
